Regional Weather Roundup
Issued by NWS Kansas City/Pleasant Hill, MO

Home | Current Version | Previous Version | Text Only | Print | Product List | Glossary On
Versions: 1 2 3 4 5 6 7 8 9 10 11 12 13 14 15 16 17 18 19 20 21 22 23 24 25 26 27 28 29 30 31 32 33 34 35 36 37 38 39 40 41 42 43 44 45 46 47 48 49 50
000
ASUS43 KEAX 301710
RWREAX

WEATHER ROUNDUP FOR EASTERN KANSAS AND NORTHWEST MISSOURI
NATIONAL WEATHER SERVICE KANSAS CITY/PLEASANT HILL MO
1200 PM CDT TUE SEP 30 2014

KSZ040-057-103>105-MOZ028-029-037-043-301800-
...KANSAS CITY METROPOLITAN AREA...

CITY           SKY/WX    TMP DP  RH WIND       PRES   REMARKS
K.C. INTL      PTSUNNY   80  62  54 S14       29.90F
K.C. DOWNTOWN  SUNNY     83  61  47 S8        29.89F
LEES SUMMIT    MOSUNNY   80  60  50 S12       29.92F
OLATHE - IXD   SUNNY     80  62  54 S12       29.91F
OLATHE - OJC   SUNNY     79  60  52 S12G18    29.91F
LAWRENCE       SUNNY     81  61  50 S10G21    29.89F

$$

MOZ001>008-011>017-020>025-030>033-038>040-044>046-053-054-301800-
...NORTHERN AND CENTRAL MISSOURI...

CITY           SKY/WX    TMP DP  RH WIND       PRES   REMARKS
ST. JOSEPH     SUNNY     82  60  47 S12G17    29.88F
MOSBY          MOSUNNY   81  59  47 S8        29.90F HAZE
WHITEMAN AFB   MOSUNNY   82  61  49 SW8       29.92F
CLINTON        SUNNY     81  64  57 S7        29.94S HAZE
SEDALIA        SUNNY     84  59  42 SW8       29.93F
WARSAW         NOT AVBL
MARSHALL       SUNNY     86  59  39 SW6       29.93F
CHILLICOTHE      N/A     79  62  56 VRB5      29.93F
MOBERLY        SUNNY     82  55  39 SE3       29.95F HAZE
KIRKSVILLE     MOSUNNY   67  61  81 E9        29.98S HAZE

$$

MOZ041-047>049-056>058-063>065-088>090-097-301800-
...EASTERN AND SOUTHERN MISSOURI...

CITY           SKY/WX    TMP DP  RH WIND       PRES   REMARKS
ST. LOUIS INTL MOSUNNY   82  58  43 CALM      29.96F
SPIRIT OF STL  MOSUNNY   79  62  56 CALM      29.95F
COLUMBIA       SUNNY     80  62  54 S5        29.94F
JEFFERSON CITY SUNNY     81  59  47 VRB6      29.93F
MEXICO         SUNNY     84  64  51 S6        29.95F
HANNIBAL       MOSUNNY   72  59  64 E6        29.98S HAZE
ROLLA          SUNNY     82  57  42 SW14      29.95F
LEBANON        SUNNY     82  55  39 S6        29.96F
OSAGE BEACH    SUNNY     82  61  47 SW5       29.95F
SPRINGFIELD    SUNNY     80  60  50 S9        29.96F
BRANSON        PTSUNNY   84  57  39 SE9       29.99S
NEVADA         SUNNY     82  61  47 S8        29.93F
JOPLIN         SUNNY     81  60  48 S13       29.94F
WEST PLAINS    SUNNY     80  53  39 SW6       29.99F

$$

IAZ060-094-KSZ022-034>040-054-083-096-NEZ052-066-093-301800-
...KANSAS...SOUTHEAST NEBRASKA AND IOWA...

CITY           SKY/WX    TMP DP  RH WIND       PRES   REMARKS
TOPEKA         SUNNY     85  61  44 S17G24    29.87F
MANHATTAN      CLOUDY    80  60  50 SW18G24   29.84F
EMPORIA          N/A     80  61  52 S24G31    29.88F
CHANUTE        SUNNY     80  63  55 S16       29.91F
WICHITA        PTSUNNY   79  61  53 S21G30    29.85F
OMAHA          CLOUDY    73  60  63 S8        29.87F
LINCOLN        LGT RAIN  65  62  90 S8        29.86F
FALLS CITY     LGT RAIN  82  60  47 S14G23    29.85F
LAMONI         MOSUNNY   71  63  75 E8        29.93F
DES MOINES     CLOUDY    61  55  81 SE12      29.95F

$$




USA.gov is the U.S. government's official web portal to all federal, state and local government web resources and services.